User: anonymous   Login
Location: Newark
(40.9833°N, 0.0333°W)
Time: 02:44:14
(UTC+00:00)
Language:

XW-2B - Orbit

View from above orbital plane
View from above orbital plane
View from above satellite
View from above satellite

Ground track
Ground track

The orbit data is extracted from the following two-line orbital elements,

1 40911U 15049N   19324.87504725  .00000754  00000-0  42695-4 0  9997
2 40911  97.4725 324.7938 0014797  25.1246  92.6930 15.15960629230418
Epoch (UTC): 20 November 2019 21:00:04
Eccentricity: 0.0014797
inclination: 97.4725°
perigee height: 508 km
apogee height: 528 km
right ascension of ascending node: 324.7938°
argument of perigee: 25.1246°
revolutions per day: 15.15960629
mean anomaly at epoch: 92.6930°
orbit number at epoch: 23041

The dashed part of the orbit path shows where the satellite is in the earth's shadow,  

DLR